Probability
2 2 2 1 0 1 1 1 0 0 0 0 0 1 7 12 13 11 10 21 35 31 18 14 11 5 1 0 0 0 0 0 0 0 0 0 0 0 0 0 0 0 0 0 0 0 0 0 0
1 2 2 1 0 0 0 0 0 0 0 0 0 3 8 12 11 9 12 26 36 29 17 14 11 5 1 0 0 0 0 0 0 0 0 0 0 0 0 0 0 0 0 0 0 0 0 0 0
0 1 1 1 0 0 0 0 0 0 0 0 2 7 12 13 10 10 19 33 37 28 19 15 11 6 1 0 0 0 0 0 0 0 0 0 0 0 0 0 0 0 0 0 0 0 0 0 0
0 0 0 0 0 0 0 0 0 0 0 1 6 13 18 16 12 15 25 35 36 27 19 15 12 7 2 0 0 0 0 0 0 0 0 0 0 0 0 0 0 0 0 0 0 0 0 0 0
0 0 0 0 0 0 0 0 0 0 1 3 10 19 22 17 14 15 21 29 31 26 20 16 13 9 3 1 1 1 0 0 0 0 0 0 0 0 0 0 0 0 0 0 0 0 0 0 0
0 0 0 0 0 0 0 0 0 1 2 3 11 21 23 17 13 12 15 21 26 28 24 19 15 11 5 3 2 1 0 0 0 0 0 0 0 0 0 0 0 0 0 0 0 0 0 0 0
0 0 0 0 0 0 0 0 0 2 4 5 10 20 25 22 16 15 17 21 26 30 26 19 14 10 6 2 1 0 0 0 0 0 0 0 0 0 0 0 0 0 0 0 0 0 0 0 0
0 0 0 0 0 0 0 0 0 2 6 8 14 25 34 34 28 25 26 28 31 31 24 15 11 8 5 1 0 0 0 0 0 0 0 0 0 0 0 0 0 0 0 0 0 0 0 0 0
0 0 0 0 0 0 0 0 0 2 7 15 27 42 49 47 43 40 39 39 41 37 26 17 14 9 4 1 1 0 0 0 0 0 0 0 0 0 0 0 0 0 0 0 0 0 0 0 0
0 0 0 0 0 0 0 0 0 2 9 25 46 61 61 56 54 51 51 54 56 48 36 29 24 16 8 5 4 1 0 0 0 0 0 0 0 0 0 0 0 0 0 0 0 0 0 0 0
0 0 0 0 0 0 0 0 0 3 13 34 58 71 69 64 60 58 59 66 68 60 49 44 38 27 20 14 8 4 3 3 3 2 0 0 0 1 1 1 1 0 0 0 0 0 0 0 0
0 0 0 0 0 0 0 0 1 7 19 37 57 68 73 70 63 59 62 70 73 66 59 56 51 43 37 28 16 10 10 7 5 4 2 1 2 2 2 2 1 0 0 0 0 0 0 0 0
0 0 0 0 0 0 0 1 3 9 20 35 48 60 68 68 63 59 63 71 72 67 62 62 60 56 52 43 30 21 17 12 8 6 4 4 4 3 3 2 2 1 1 1 1 1 1 0 0
0 0 0 0 0 0 0 1 5 11 20 31 43 54 61 62 60 60 64 68 66 61 61 63 62 60 54 46 37 28 20 15 13 11 9 9 7 5 4 3 1 1 2 3 2 1 0 0 0
0 0 0 0 0 0 0 3 10 18 24 31 41 52 58 58 58 59 61 61 56 53 56 57 55 52 46 38 33 28 20 17 17 17 14 11 8 6 5 4 2 1 1 1 1 0 0 0 0
0 0 0 0 0 0 1 7 17 23 25 30 40 49 55 55 55 55 53 51 50 49 52 51 48 44 39 34 31 27 21 18 17 17 14 9 5 4 4 3 2 0 0 0 0 0 0 0 0
0 0 0 0 0 0 2 11 20 22 21 27 39 48 52 51 49 47 45 45 48 50 51 47 44 41 37 33 31 26 22 18 15 13 9 4 2 1 1 1 1 0 0 0 0 0 0 0 0
0 0 0 0 0 0 2 10 18 19 18 25 38 47 51 47 41 39 40 41 44 49 48 43 40 38 36 33 28 23 19 16 12 8 4 1 0 0 0 0 0 0 0 0 0 0 0 0 0
0 0 0 0 0 0 2 8 16 19 18 24 37 47 49 44 37 33 34 34 37 42 42 39 37 37 36 31 26 21 17 13 8 3 1 0 0 0 0 0 0 0 0 0 0 0 0 0 0
0 0 0 0 0 0 2 7 14 17 17 22 35 43 42 37 31 27 26 27 30 33 35 33 33 35 33 27 24 20 16 10 5 1 0 0 0 0 0 0 0 0 0 0 0 0 0 0 0
0 0 0 0 0 0 1 6 11 14 12 16 27 33 30 25 23 20 18 20 23 23 25 25 25 28 27 24 21 17 13 7 2 0 0 0 0 0 0 0 0 0 0 0 0 0 0 0 0
0 0 0 0 0 0 1 4 9 11 10 11 17 21 18 17 17 16 14 14 15 15 17 19 20 22 23 20 18 14 8 4 2 0 0 0 0 0 0 0 0 0 0 0 0 0 0 0 0
0 0 0 0 0 0 0 2 5 8 9 10 13 14 12 13 14 14 12 10 9 10 14 18 20 21 20 18 16 12 6 3 2 1 1 1 0 0 0 0 1 1 0 0 0 0 1 1 0
0 0 0 0 0 0 0 1 2 4 6 9 9 9 9 10 11 11 10 8 7 8 13 18 21 21 19 16 15 10 7 5 4 4 4 2 1 0 1 2 3 2 1 0 0 1 2 2 1
0 0 0 0 1 0 0 0 1 2 3 5 5 4 5 7 8 9 10 9 9 11 16 22 24 23 20 15 13 11 9 8 7 6 6 3 1 1 3 4 5 4 2 1 1 2 3 3 2
0 0 0 0 0 0 0 0 1 1 1 2 4 2 1 3 6 9 10 11 13 15 22 28 28 26 22 17 16 15 12 8 6 6 5 2 0 2 5 6 5 4 3 2 2 3 3 3 3
0 0 0 0 0 0 0 0 1 1 1 2 3 3 1 1 4 7 10 12 16 20 27 32 32 30 26 21 20 18 12 7 5 5 3 1 1 3 5 6 5 4 4 3 3 3 3 3 3
0 0 0 0 0 0 0 1 2 3 2 2 3 3 2 1 2 6 10 13 17 23 29 33 34 33 29 24 20 15 11 8 8 9 7 6 6 7 8 7 6 5 5 4 4 3 3 3 3
0 0 0 0 0 0 0 1 2 2 1 1 1 3 3 1 1 6 11 15 18 23 29 34 36 35 30 25 21 18 17 16 17 18 19 16 14 13 13 11 8 7 6 7 6 5 3 3 3
0 0 0 1 1 1 1 2 2 1 0 0 1 2 3 2 2 5 12 17 20 24 29 33 36 35 32 28 27 27 27 27 25 26 27 25 20 17 16 13 9 7 8 10 9 6 4 3 3
Wind_Speed
10 13 11 9 7 5 7 5 5 9 10 10 8 6 9 12 10 9 8 17 22 22 19 17 16 15 14 14 13 13 13 13 12 12 11 11 11 11 11 11 12 12 12 12 11 11 11 11 10
11 15 12 8 8 6 4 3 7 9 8 6 4 4 7 12 12 11 12 18 23 21 18 16 17 15 15 14 14 13 13 13 12 11 11 11 11 10 11 11 11 11 11 11 11 11 11 10 9
14 17 10 9 12 9 2 3 4 6 6 3 4 6 8 9 10 10 13 19 21 19 17 17 18 16 15 14 13 13 13 13 12 11 11 10 10 10 10 10 11 11 11 11 11 10 10 9 8
10 10 8 9 12 7 5 5 4 3 5 3 3 7 9 7 8 12 15 18 21 19 18 18 18 17 15 14 13 13 13 12 12 11 10 10 10 10 10 10 10 10 10 10 10 9 9 8 7
11 9 11 13 13 5 4 6 4 3 3 3 3 9 9 8 10 15 15 18 19 19 18 17 18 17 15 14 14 13 13 12 11 11 10 9 9 9 9 9 9 9 9 9 8 8 7 7 6
9 10 12 12 8 3 3 4 3 3 3 2 3 8 8 10 12 14 15 16 18 20 18 16 17 17 15 14 13 13 12 11 11 10 9 9 9 9 8 8 8 8 8 7 7 7 6 5 4
11 12 15 13 6 3 3 4 3 3 3 3 3 7 9 11 13 15 15 15 17 20 18 15 15 14 15 14 13 13 12 11 10 9 9 9 8 8 8 7 7 7 6 6 5 5 4 3 2
10 11 16 11 6 4 5 3 2 2 3 3 1 6 8 10 13 15 14 14 16 18 18 15 15 13 12 12 13 12 12 11 10 9 9 8 8 8 7 8 7 6 5 4 3 3 2 2 2
12 11 12 8 7 6 5 4 1 1 2 2 5 10 14 15 14 14 14 13 13 15 15 16 16 13 12 12 13 12 12 10 10 8 8 7 5 6 6 8 8 6 5 3 3 2 3 4 5
9 9 9 7 9 9 6 5 4 3 3 3 9 14 16 15 14 15 14 14 14 13 14 12 14 12 11 10 10 8 8 8 7 5 6 5 3 3 6 8 8 6 5 4 4 4 5 6 4
10 9 9 7 6 8 8 6 4 4 1 4 10 15 15 15 14 14 13 12 12 12 12 12 12 10 8 6 7 5 4 5 5 5 4 3 2 3 5 3 4 4 5 3 3 4 3 2 1
9 9 8 8 7 8 8 7 5 3 4 6 10 14 15 15 14 13 11 11 10 10 11 12 11 8 6 6 5 5 4 4 3 3 2 3 2 2 3 2 1 1 1 1 1 1 0 1 2
10 11 10 8 8 8 7 7 4 2 6 7 10 12 13 13 13 13 10 10 9 8 9 10 9 7 6 5 3 4 4 4 5 3 2 3 3 3 3 2 1 0 1 1 1 1 1 1 1
11 11 10 8 9 9 8 6 3 2 6 6 8 9 12 12 12 11 11 10 9 8 8 10 9 9 7 5 3 3 4 3 4 4 4 3 4 3 2 2 1 2 2 2 1 1 0 0 0
12 14 11 10 11 7 6 5 1 3 5 7 8 9 9 10 10 9 10 11 11 9 8 9 9 9 7 6 4 4 3 4 5 5 4 4 4 2 1 2 1 2 1 1 1 1 1 1 1
15 14 12 11 10 5 6 3 7 8 7 6 7 9 9 9 9 10 11 10 9 10 9 9 10 10 7 5 3 3 3 4 5 5 4 4 3 2 1 2 3 1 1 1 0 1 2 2 1
12 11 10 6 6 5 7 3 7 8 7 7 7 9 10 9 8 9 12 11 11 10 10 8 8 9 8 6 4 3 4 4 4 5 4 3 3 2 1 3 2 1 0 1 2 3 2 2 2
11 11 9 6 4 7 8 4 5 8 8 7 8 9 10 10 8 8 10 11 11 11 10 9 9 8 8 6 4 4 4 4 4 4 4 4 3 2 1 3 2 1 2 2 3 2 1 1 2
12 13 13 10 6 7 9 5 5 8 7 8 9 10 11 11 11 9 9 10 11 11 10 9 9 8 6 5 5 4 4 4 4 4 5 4 3 3 1 3 2 1 3 3 2 2 1 1 0
13 14 13 10 8 9 10 6 3 6 6 8 9 11 11 12 11 10 10 10 10 10 10 10 10 9 7 5 4 4 4 4 4 4 4 4 4 4 3 2 2 2 2 2 2 2 2 2 1
13 12 12 13 13 13 10 4 3 5 7 8 10 11 12 14 14 12 12 11 11 11 11 10 10 10 8 7 5 4 4 2 4 5 4 4 4 3 2 2 1 1 1 2 1 1 1 2 1
13 12 12 14 14 11 9 3 4 5 7 9 10 11 13 13 15 14 13 13 13 12 11 10 10 10 8 8 7 8 6 5 5 5 5 5 4 4 4 3 2 0 0 2 1 2 2 1 2
14 12 13 15 13 11 9 6 5 7 7 9 10 11 12 13 14 15 14 14 13 14 12 11 10 10 9 8 8 7 6 5 5 5 7 6 5 4 4 4 3 2 0 2 2 2 1 2 3
13 13 13 9 6 5 8 7 3 5 7 10 11 12 12 13 13 14 14 14 12 13 13 13 12 10 10 9 8 8 7 5 6 6 7 5 4 4 5 4 3 2 2 2 1 0 1 1 2
12 11 7 5 1 5 8 6 2 5 6 9 12 13 13 13 13 14 14 14 14 14 14 14 13 12 11 10 8 8 6 5 6 6 7 6 5 5 6 5 4 3 2 2 2 2 1 1 0
12 12 8 8 8 5 2 2 1 6 8 9 12 13 13 13 13 13 14 14 14 14 14 14 14 12 12 10 8 8 7 5 5 6 5 5 3 5 7 6 5 4 4 4 3 2 3 2 2
13 11 10 9 12 9 1 1 2 5 5 8 12 13 13 13 14 14 14 14 14 14 13 14 13 12 12 11 9 8 7 6 6 6 5 4 3 5 8 6 6 5 4 3 3 3 2 2 3
13 10 7 8 8 7 3 2 1 3 3 5 10 12 12 13 14 14 13 13 13 13 12 13 13 12 11 11 10 10 8 7 5 6 6 4 4 4 7 6 6 5 5 4 4 3 3 3 3
11 10 8 8 8 7 4 0 5 8 6 7 9 10 11 12 13 13 13 13 12 12 13 12 12 12 11 11 10 9 9 8 7 6 6 5 5 5 6 6 6 6 6 5 5 4 4 5 4
9 9 9 7 8 8 6 1 2 2 2 6 8 9 9 10 12 13 13 13 12 13 13 13 13 12 11 10 9 8 8 8 8 8 7 6 6 6 6 6 6 7 7 6 6 6 5 5 5
Wind_Direction
238 245 240 250 247 248 278 304 13 38 50 54 43 32 53 53 64 95 127 128 121 123 128 128 125 126 125 123 123 121 119 118 115 112 110 107 104 101 97 95 94 92 90 87 86 84 80 79 81
257 257 246 247 255 263 282 334 29 52 60 73 84 65 69 72 79 110 128 123 123 126 134 130 127 126 125 125 125 124 122 120 117 115 113 111 108 104 99 96 95 93 91 88 86 83 81 80 80
258 264 265 254 257 274 339 47 59 78 74 50 71 70 64 74 89 113 124 127 124 128 128 128 131 128 128 127 127 126 125 123 121 118 114 110 109 105 102 99 96 94 92 90 88 85 82 82 80
256 248 243 261 276 302 348 34 37 82 89 67 58 82 77 72 105 125 133 130 125 128 128 131 132 130 131 130 130 129 127 127 125 122 118 113 109 107 103 100 96 95 94 92 90 88 83 81 79
246 259 253 262 273 299 2 27 4 347 82 77 64 95 98 95 113 132 141 134 133 131 129 135 135 133 134 134 134 133 131 130 130 126 122 117 112 109 105 102 99 98 97 95 92 90 85 79 73
258 258 266 272 283 339 37 48 348 9 64 91 115 106 104 122 129 140 144 140 137 131 131 134 137 137 137 138 138 137 135 134 132 129 125 120 117 114 111 107 104 102 100 101 99 95 90 82 70
263 281 281 283 310 342 32 21 353 36 25 20 65 100 119 133 136 143 145 142 136 131 132 142 142 142 142 143 143 141 139 138 136 135 131 130 127 127 126 119 114 111 110 109 107 104 100 96 79
264 283 290 296 320 13 50 3 13 11 101 76 36 105 132 140 144 143 146 144 137 136 141 147 147 147 150 148 148 145 144 144 144 144 146 147 147 148 148 142 128 123 123 128 130 133 143 170 222
259 267 281 313 345 11 28 340 12 57 144 132 82 97 132 147 148 149 151 147 143 142 146 152 149 153 156 155 150 151 152 153 154 159 167 170 173 164 168 135 137 143 147 155 169 188 210 223 226
247 265 295 348 346 335 348 328 306 235 199 143 111 113 137 154 158 159 159 155 150 145 148 146 148 155 163 155 149 160 163 158 176 165 172 187 176 151 135 134 150 163 175 186 204 224 240 238 230
258 278 313 330 333 323 317 308 298 295 261 130 138 145 155 161 165 165 165 160 153 151 147 144 142 153 151 136 157 155 151 153 174 155 163 159 136 124 122 145 155 184 196 203 189 221 240 247 298
261 282 291 298 315 303 304 310 317 349 61 94 129 148 156 164 170 169 167 158 155 155 147 142 142 143 132 138 140 138 138 143 133 141 162 121 96 91 102 104 137 187 166 158 173 223 49 352 338
260 268 270 282 292 290 297 296 307 42 89 110 131 149 162 173 174 169 162 153 154 150 139 132 135 126 113 106 129 132 121 133 132 132 90 100 106 84 84 71 51 53 81 86 39 47 35 16 341
287 294 296 297 285 274 273 285 276 133 127 140 146 161 170 174 172 166 155 149 149 151 137 130 134 125 121 118 106 113 122 124 116 110 94 79 79 76 91 102 54 45 56 50 352 355 329 355 65
284 281 278 273 264 264 286 278 188 144 162 160 159 165 161 158 163 161 150 148 155 153 143 136 138 133 135 137 148 135 131 123 110 105 99 89 90 89 83 101 89 49 42 58 23 350 300 235 230
278 275 273 260 255 237 258 287 146 173 180 161 165 161 153 146 159 157 151 150 153 155 149 151 147 141 139 133 143 134 125 118 118 118 107 100 102 95 66 82 73 32 353 24 67 18 347 17 7
269 269 275 271 246 273 280 306 160 172 172 166 171 159 151 145 160 158 155 157 157 156 151 149 133 139 142 142 145 121 109 118 122 119 118 122 116 107 91 83 72 284 46 42 17 56 25 356 6
300 303 303 310 257 277 290 281 175 178 183 175 166 159 152 152 166 164 155 158 158 154 151 143 136 141 144 145 144 128 128 133 125 119 125 137 130 110 112 115 88 337 59 52 50 22 42 310 328
301 302 308 316 301 294 292 275 198 179 184 169 169 164 160 165 169 162 159 161 155 150 150 147 145 147 149 150 151 146 152 147 133 135 140 146 137 126 16 99 119 42 74 61 43 9 301 225 36
288 296 303 307 306 287 287 274 186 166 179 171 168 165 167 164 166 166 166 166 161 155 153 151 155 156 160 155 152 156 147 154 142 134 143 154 149 156 161 108 138 94 104 81 43 32 333 333 71
284 293 305 310 303 287 283 273 157 164 170 168 169 167 170 168 166 171 169 168 170 166 165 164 164 160 166 157 154 149 133 149 136 141 158 163 160 160 104 128 103 124 156 128 108 0 349 343 352
282 296 306 305 301 301 301 285 161 180 177 171 170 170 172 170 167 172 173 175 176 175 171 164 164 162 167 164 167 163 168 177 165 161 157 165 170 162 156 163 139 223 56 123 187 112 330 319 313
287 299 298 300 308 313 331 312 177 182 185 174 171 172 173 173 170 173 175 175 177 176 174 167 165 166 168 175 171 177 181 177 161 158 149 166 169 177 175 168 159 176 139 104 69 85 350 334 340
279 285 288 305 334 318 282 274 215 170 177 164 163 166 169 170 169 171 171 172 178 174 171 168 168 171 173 179 177 189 189 176 161 160 155 177 169 182 181 175 166 188 176 139 144 164 171 4 1
268 277 288 309 295 248 249 260 205 150 139 147 155 161 166 167 169 169 169 171 173 176 174 170 169 172 175 181 182 187 188 175 165 171 168 189 178 178 176 175 168 189 168 174 173 186 224 197 332
258 267 276 293 292 287 247 283 268 112 111 126 144 152 162 165 166 169 170 170 173 176 174 169 170 174 178 182 181 181 181 183 180 190 186 194 200 172 160 162 170 189 188 197 176 208 198 184 222
257 263 277 280 286 292 280 254 62 47 103 130 141 151 161 166 168 170 171 173 175 176 175 172 172 175 180 181 177 179 184 198 190 176 202 191 181 151 150 164 175 189 193 198 176 227 223 171 216
247 266 282 286 295 301 322 17 14 284 188 152 149 155 161 166 170 170 172 176 177 176 171 171 173 176 179 180 182 185 189 196 191 185 193 194 171 159 151 171 182 187 186 192 206 229 207 204 225
243 248 259 277 284 298 303 272 179 219 204 172 156 153 161 167 170 171 172 175 175 175 172 170 169 176 181 184 189 188 185 192 194 195 187 184 171 164 166 182 188 190 193 192 200 233 216 205 222
262 266 259 257 270 279 290 118 145 230 226 156 141 142 154 167 168 169 171 172 175 177 176 175 176 179 184 185 185 189 184 188 194 195 189 181 179 180 184 191 196 203 202 195 199 221 226 210 217